Location: Clarion
(42.7316°N, 93.7330°W)
Time: 09:32:36
(UTC+00:00)

SL-4 R/B - Pass Details

Date: 22 April 2026
Orbit: 380 x 505 km, 51.6° (Epoch: 17 May)

Event Time Altitude Azimuth Distance (km) Brightness Sun altitude
Rises 02:44:06 0° 212° (SSW) 2,530 5.4 -17.2°
Reaches altitude 10° 02:46:21 10° 203° (SSW) 1,672 4.3 -17.5°
Enters shadow 02:47:39 19° 191° (S) 1,233 3.6 -17.7°
